Home   Weather   Minamisōma   Past weeks

Flag for Japan Past Weather in Minamisōma, Japan — Yesterday and Last 2 Weeks

Now
48 °F

Cool.


Feels Like: 48 °F
Forecast: 46 / 66 °F
Wind: 2 mph from Northwest

Location: Sendai

Current Time: Apr 25, 2017 at 2:21:02 am

Latest Report: Apr 25, 2017 at 1:00 am


Visibility: N/A

Pressure: 30.33 "Hg

Humidity: 81%

Dew Point: 42 °F

Location of MinamisōmaLocation

Past Weather in Minamisōma — Graph

°F

Minamisōma Temperature Yesterday

Maximum temperature yesterday: 56 °F (at 1:00 pm)
Minimum temperature yesterday: 43 °F (at 4:00 am)
Average temperature yesterday: 50 °F

High & Low Weather Summary for the Past Weeks

 TemperatureHumidityPressure
High77 °F (Apr 16, 1:00 pm)96% (Apr 18, 5:00 am)30.38 "Hg (Apr 18, 5:00 am)
Low37 °F (Apr 14, 5:00 am)17% (Apr 10, 1:00 pm)29.23 "Hg (Apr 18, 12:00 pm)
Average53 °F54%29.85 "Hg
* Reported Apr 10 12:00 am — Apr 25 12:00 am, Minamisōma, Weather by CustomWeather, © 2017

Note: Actual official high and low records may vary slightly from our data, if they occured in-between our weather recording intervals... More about our weather records

Advertising

Minamisōma Weather History for the Previous 24 Hours

Scroll right to see more
 ConditionsComfort  
Time TempWeatherWind HumidityBarometerVisibility
12:00 am
Tue, Apr 25
48 °FCool.1 mph82%30.34 "HgN/A
11:00 pm
Mon, Apr 24
49 °FCool.3 mph81%30.34 "HgN/A
10:00 pm49 °FCool.2 mph84%30.35 "HgN/A
9:00 pm49 °FPassing clouds.3 mph80%30.37 "Hg12 mi
8:00 pm50 °FCool.5 mph78%30.37 "HgN/A
7:00 pm51 °FCool.9 mph74%30.35 "HgN/A
6:00 pm51 °FPassing clouds.12 mph71%30.34 "Hg19 mi
5:00 pm53 °FCool.14 mph66%30.34 "HgN/A
4:00 pm54 °FCool.15 mph59%30.32 "HgN/A
3:00 pm54 °FPassing clouds.13 mph57%30.32 "Hg25 mi
2:00 pm56 °FRefreshingly cool.15 mph56%30.32 "HgN/A
1:00 pm56 °FRefreshingly cool.12 mph55%30.33 "HgN/A
12:00 pm55 °FPassing clouds.10 mph59%30.34 "Hg25 mi
11:00 am55 °FRefreshingly cool.12 mph59%30.37 "HgN/A
10:00 am54 °FCool.9 mph59%30.37 "HgN/A
9:00 am50 °FOvercast.6 mph65%30.38 "Hg19 mi
8:00 am49 °FCool.7 mph68%30.37 "HgN/A
7:00 am47 °FCool.2 mph63%30.37 "HgN/A
6:00 am44 °FPartly sunny.3 mph65%30.35 "Hg25 mi
5:00 am43 °FQuite cool.3 mph71%30.33 "HgN/A
4:00 am43 °FQuite cool.5 mph80%30.30 "HgN/A
3:00 am44 °FPassing clouds.2 mph73%30.29 "Hg12 mi
2:00 am45 °FCool.2 mph80%30.28 "HgN/A
Weather by CustomWeather, © 2017

See weather overviewHow to use our weather pages